Current Conditions for Foresthill, CA. Clear skies, Dry   
Visibility: 10 miles
Space WX Alerts: ALERT:  Type II Radio Emission ( Latest Alert ) - Issue Time: 2021 May 09 1502 UTC

  Summary / Temperature 

Current Temperature
64.9°F
18.3°C
(24/hr Ago)
61.6°F
(Apparent temp)
62.3°F
Comfortable
Wind Chill Graphs
64.9°F 

64.9°F/ 18.3°C
 --- Virtual Temp: 66.6°F ---

 Temp Rate:

 24/hr Difference:

 Avg Running Temp:

 Todays High:

 Todays Low:

 Y-days High:

 Y-days Low:

 Todays WChill:

 Y-days WChill:

 Evapotranspiration:

-3.4°F/hr 

+3.3°F

68.1°F

83.6°F 1:19pm

57.5°F 2:07am

77.2°F 5:13pm

55.8°F 5:39am

54.4°F 2:08am

52.6°F 5:42am

0.242 in

115' Above Ground

 Temperature:

 6'AGL VRS 115'AGL:

 Avg Running Temp:

 Humidity:

 Todays High:

 Todays Low:

 Y-days High:

 Y-days Low:

72.0°F 

+7.1°F

72.4°F

0% 

79.0°F 1:18pm

69.0°F 12:00am

74.0°F 4:04pm

67.0°F 11:02am

Temp & Humidity Graphs

  Wind 

Wind Speed

 1.0 mph

Gusting to

 4.0 mph

Wind from N

355°  N

Light air

 Avg speed:

 Wind Run:

 Peak Gust:

Calm 

83.0 miles

  24.0 mph 4:40am

  Almanac  

Moon age: 28 days,23 hours,45 minutes,0%

New moon
0%
Illuminated
28 days in cycle

 Moonrise:

 Moonset:

 Sunrise:

 Sunset:

 Solar Noon:

5:33am

7:16pm

5:53am

8:03pm

1:00pm

1min 55s more daylight tomorrow 

  Solar Radiation 

(Current Solar)
  No Sun Light
(Todays High)
 925 W/m2@12:37pm

Rain

 Rain Today:

 Rain Rate (/hr):

 Rain last hour:

 Rain Yesterday:

 This Month:

 Season Total:

13 Days Since Last Rain Day

0.00 in

0.000 in

0.00 in

0.00 in

0.00 in

22.73 in

Updated Time

Updated: 5/10/21  9:27pm

(Updated  sec ago)

Humidity & Barometer

 Humidity:

 Wetbulb:

 Dew Point:

 Barometer:

37% 

52.8°F 

38.0°F 

29.850 inHg 

 Baro Trend:  Steady 
Northern Calif
Preparedness
Fire 
Level 

    UV Index  

(Current UV)
0.0  None
(Todays High) @ 12:26pm
7.3   High

National Weather Service Forecast

This
Afternoon
This Afternoon: Sunny
Sunny
Tonight

Tonight: Clear
Clear
Tuesday

Tuesday: Sunny
Sunny
Tuesday
Night
Tuesday Night: Clear
Clear
Wednesday

Wednesday: Sunny
Sunny
Wednesday
Night
Wednesday Night: Mostly Clear
Mostly Clear
Hi 83 °F Lo 64 °F Hi 82 °F Lo 61 °F Hi 84 °F Lo 60 °F

Foresthill Probe 2 Stats  
Foresthill Probe 2: is located on Thomas Street
at 3000 feet. The main Foresthill Weather site
is located on Melody ln at the 2860 foot elevation

Calm
63.6°F
17.6°C
Temp Rate:
-3.2°F
Calm
Gusting to
None
(Humidity)
38%
Calm
296°  
Updated: 10/05/21 - 21:27:33
 Todays High: 82.5°F 14:06
 Todays Low: 55.7°F 01:47
 Rain Today: 0.00 in
 Season Total: 23.77 in

Foresthill Wx: Monthly,Yearly, Highs and Lows 

Foresthill  
This Weather Data is coming from the main Foresthill
Weather site located on Melody ln at the 2860 foot
elevation
Not Foresthill Probe 2
Weather Data
Month
  High
Month
  Low
Year
High
Year
Low
Temp 85.0°F
5/5/21
47.4°F
5/7/21
85.0°F
5/5/21
25.3°F
1/26/21
Humidity 77%
5/1/21
17%
5/10/21
100%
1/3/21
9%
3/30/21
Heat Index 82.2°F
5/5/21
50.6°F
5/7/21
82.2°F
5/5/21
31.2°F
1/26/21
Wind Chill 85.0°F
5/5/21
41.6°F
5/7/21
85.0°F
5/5/21
12.5°F
1/26/21
Wind Gust 24 mph
5/7/21
0 mph
5/1/21
50 mph
1/19/21
0 mph
1/1/21
Barometer 30.03 in
5/8/21
29.82 in
5/10/21
30.52 in
2/21/21
29.73 in
4/13/21
ET 0.24 in
5/10/21
0.00 in
5/1/21
0.24 in
5/10/21
0.00 in
1/1/21
Dew Point 49.6°F
5/2/21
25.7°F
5/8/21
51.9°F
1/13/21
3.6°F
2/24/21
Visible Satellite Pacific Satellite US Radar Satellite Imagery Sacramento,CA.  (click to enlarge)
NWS Weather Forecast - Summary
Updated: Monday, May 10, 2021 - 6:56pm PDT
Red Flag Warning continues thru Tuesday afternoon for western portions of the Central Valley, Delta, and lower elevations of the Coast Range
NWS Weather Forecast: This Afternoon and Tonight (Updated: Mon, 10-May-2021 1:45pm PDT)
This
Afternoon
This Afternoon: Sunny
Sunny

Hi 83 °F
NWS forecast: Sunny, with a high near 83. North northwest wind around 9 mph.
Tonight

Tonight: Clear
Clear

Lo 64 °F
NWS forecast: Clear, with a low around 64. Northeast wind 8 to 15 mph, with gusts as high as 24 mph.
YR.NO 10 Day Weather forecast
Last update: 05/10/2021 @ 18:11
Next update: 05/11/2021 @ 00:11
Provided by: 22
      Temperature Precipitation Pressure Wind  
Today
05/10/2021
20:00 00:00 68°F   29.83 inHg Light breeze from east-northeast 4 mph
    (Click to enlarge)
meteogram

    Forecast for next 9 days

      Temperature Precip Pressure Wind  
Tuesday
05/11/2021
00:00 06:00 61°F   29.88 inHg Gentle breeze from east-northeast 10 mph
  06:00 12:00 57°F   29.88 inHg Gentle breeze from east-northeast 9 mph
  12:00 18:00 81°F   29.87 inHg Light breeze from west-southwest 7 mph
  18:00 00:00 81°F   29.85 inHg Light breeze from west-southwest 5 mph
      Temperature Precip Pressure Wind  
Wednesday
05/12/2021
00:00 06:00 55°F   29.91 inHg Light breeze from east-northeast 6 mph
  06:00 12:00 52°F   29.91 inHg Light breeze from east-northeast 7 mph
  12:00 18:00 84°F   29.96 inHg Light breeze from west-southwest 7 mph
  18:00 00:00 81°F   29.93 inHg Light breeze from west-southwest 6 mph
      Temperature Precip Pressure Wind  
Thursday
05/13/2021
00:00 06:00 54°F   29.99 inHg Light breeze from east 4 mph
  05:00 11:00 52°F   29.96 inHg Light breeze from east-northeast 6 mph
  11:00 17:00 81°F   29.97 inHg Light breeze from southwest 6 mph
  17:00 23:00 82°F   29.91 inHg Light breeze from southwest 6 mph
  23:00 05:00 57°F   29.92 inHg Light breeze from east 5 mph
      Temperature Precip Pressure Wind  
Friday
05/14/2021
05:00 11:00 55°F   29.85 inHg Light breeze from east 6 mph
  11:00 17:00 79°F   29.83 inHg Gentle breeze from south-southwest 9 mph
  17:00 23:00 79°F   29.74 inHg Gentle breeze from south-southwest 9 mph
  23:00 05:00 59°F   29.78 inHg Light air from east-southeast 2 mph
      Temperature Precip Pressure Wind  
Saturday
05/15/2021
05:00 11:00 48°F   29.77 inHg Light air from east 3 mph
  11:00 17:00 68°F   29.81 inHg Light breeze from west 5 mph
  17:00 23:00 68°F   29.76 inHg Light breeze from west-southwest 4 mph
  23:00 05:00 54°F   29.82 inHg Light breeze from east-northeast 4 mph
      Temperature Precip Pressure Wind  
Sunday
05/16/2021
05:00 11:00 46°F   29.79 inHg Light breeze from east 4 mph
  11:00 17:00 72°F   29.81 inHg Light breeze from west-southwest 6 mph
  17:00 23:00 75°F   29.77 inHg Light breeze from west-southwest 6 mph
  23:00 05:00 59°F   29.86 inHg Light breeze from east 5 mph
      Temperature Precip Pressure Wind  
Monday
05/17/2021
05:00 11:00 52°F   29.88 inHg Light air from east 3 mph
  11:00 17:00 72°F   29.90 inHg Light breeze from southwest 6 mph
  17:00 23:00 75°F   29.85 inHg Light breeze from southwest 6 mph
  23:00 05:00 54°F   29.88 inHg Light breeze from east 4 mph
      Temperature Precip Pressure Wind  
Tuesday
05/18/2021
05:00 11:00 52°F   29.87 inHg Light breeze from east 5 mph
  11:00 17:00 72°F   29.90 inHg Light breeze from southwest 7 mph
  17:00 23:00 73°F   29.85 inHg Light breeze from southwest 6 mph
  23:00 05:00 57°F   29.91 inHg Light breeze from east-southeast 4 mph
      Temperature Precip Pressure Wind  
Wednesday
05/19/2021
05:00 11:00 50°F   29.91 inHg Light breeze from east-northeast 4 mph
  11:00 17:00 72°F   29.93 inHg Light breeze from west-southwest 6 mph
  17:00 23:00 75°F   29.87 inHg Light breeze from west 6 mph
How Close Are We To this Month's Temperature Record ?
Updated Monday, May 10, 2021- 9:25:01 PM

Current Temperature: 64.9°F

May's High: Temperature Record 94.3°F - Set on Thu, May 28, 2020 - 2:11:43 PM
We are currently 29.4°F Less than this Month's record High

May's Low: Temperature Record 37.2°F - Set on Mon, May 20, 2019 - 5:45:00 AM
We are currently 27.7°F More than this Month's record Low

Weather History For Monday, May 10, 2021


On this Day - In Weather History ...
Data courtesy of weatherforyou.com
powered by Cumulus v1.9.3 (1059)
Ambient Weather VWS v14.00
Top Website Map Copyright © 2007 - 2021 Foresthillweather.com Never base important decisions on this or any weather information obtained from the Internet